[[{"header":{"parameterUnit":"m.s-1","parameterCategory":1,"la1":30.2991,"la2":30.254,"lo1":-89.0895,"lo2":-89.0444,"dy":0.0017,"dx":0.0017,"nx":28,"ny":28,"refTime":"2023-09-26T09:00:00:Z","depth":0,"parameterNumber":2,"parameterNumberName":"U-component_of_WINDS"},"data":[0,0,0,0,0,0,0,0,0,0,0,0,0,0,0,0,0,0,0,0,0,0,0,0,0,0,0,0,0,0,0,0,0,0,0,0,0,0,0,0,0,0,0,0,0,0,0,0,0,0,0,0,0,0,0,0,0,0,-4.2793,-4.2794,0,-4.2909,-4.291,-4.2912,-4.2869,-4.2867,-4.2864,-4.2862,-4.298,-4.2986,-4.2991,0,0,0,0,0,0,0,0,0,0,0,0,0,-4.2535,-4.254,-4.2793,-4.2794,-4.2796,-4.2909,-4.291,-4.2912,-4.287,-4.2867,-4.2864,-4.2861,-4.2978,-4.2985,-4.2992,0,0,0,0,0,0,0,0,0,0,0,0,0,-4.2649,-4.2542,-4.2792,-4.2788,-4.2789,-4.2909,-4.2911,-4.2912,-4.2871,-4.2867,-4.2863,-4.2859,-4.2976,-4.2984,-4.2993,-4.3123,0,0,-4.3018,-4.3022,0,0,0,0,0,0,0,0,-4.2642,-4.2658,-4.2787,-4.2789,-4.279,-4.2871,-4.2863,-4.2983,-4.2872,-4.284,-4.2862,-4.2857,-4.2947,-4.2958,-4.2988,-4.3129,-4.3134,-4.3019,-4.3024,-4.3028,-4.303,0,0,0,0,0,0,0,-4.2634,-4.2653,-4.2839,-4.2789,-4.2791,-4.2781,-4.2793,-4.2886,-4.2914,-4.2842,-4.2839,-4.2854,-4.2947,-4.298,-4.299,-4.3135,-4.3019,-4.3026,-4.3032,-4.3035,-4.339,-4.3394,0,0,0,0,0,0,-4.2626,-4.2647,-4.2835,-4.2842,-4.2705,-4.2789,-4.2802,-4.2849,-4.2913,-4.2919,-4.2857,-4.2851,-4.2968,-4.2981,-4.2994,-4.315,-4.3028,-4.3036,-4.304,-4.3385,-4.3391,-4.3395,0,0,0,0,0,0,-4.2621,-4.2643,-4.283,-4.2744,-4.2767,-4.2797,-4.285,-4.2853,-4.2886,-4.2924,-4.2929,-4.2885,-4.2965,-4.2983,-4.3092,-4.3154,-4.3039,-4.3047,-4.338,-4.3387,-4.3393,-4.3464,0,0,0,0,0,0,-4.2613,-4.2642,-4.2691,-4.2745,-4.2772,-4.2925,-4.2854,-4.2858,-4.2901,-4.2894,-4.2952,-4.2958,-4.2963,-4.3079,-4.31,-4.3163,-4.3054,-4.3374,-4.3383,-4.3391,-4.3456,-4.3472,-4.3486,0,0,0,0,0,-4.2604,-4.2706,-4.2694,-4.2716,-4.2834,-4.2929,-4.2944,-4.2948,-4.2906,-4.2956,-4.2981,-4.2956,-4.3145,-4.3091,-4.3114,-4.318,-4.3371,-4.3381,-4.339,-4.3449,-4.3469,-4.3485,0,0,0,0,0,0,-4.2657,-4.2713,-4.27,-4.2822,-4.2871,-4.2921,-4.2984,-4.2969,-4.3031,-4.3022,-4.3025,-4.3039,-4.3151,-4.3177,-4.3116,-4.3311,-4.3251,-4.3266,-4.3288,-4.3307,-4.3322,-4.3311,-4.3061,0,0,0,0,0,-4.2684,-4.2756,-4.2801,-4.2904,-4.293,-4.2953,-4.2995,-4.2994,-4.3045,-4.3065,-4.3098,-4.3148,-4.3219,-4.3265,-4.3332,-4.3461,-4.3473,-4.3519,-4.3534,-4.3546,-4.3557,-4.3627,-4.3648,-4.3428,-4.3428,-4.3427,0,0,-4.2737,-4.2777,-4.2822,-4.2916,-4.2954,-4.3028,-4.2971,-4.3052,-4.3107,-4.3078,-4.3181,-4.3208,-4.3265,-4.3384,-4.3438,-4.3409,-4.3622,-4.3558,-4.3568,-4.3573,-4.3639,-4.366,-4.3678,-4.3434,-4.3433,-4.3432,0,0,-4.2873,-4.2911,-4.3001,-4.3041,-4.31,-4.3115,-4.3137,-4.3191,-4.3207,-4.3312,-4.3292,-4.3359,-4.348,-4.3521,-4.3558,-4.3713,-4.3692,-4.3736,-4.3812,-4.388,-4.3897,-4.3912,-4.3966,-4.3985,-4.3748,-4.3748,-4.3748,0,-4.2932,-4.3044,-4.3049,-4.3133,-4.3174,-4.3153,-4.3244,-4.3283,-4.336,-4.339,-4.3357,-4.351,-4.3547,-4.3675,-4.3713,-4.3745,-4.3769,-4.3727,-4.3894,-4.3909,-4.3924,-4.3975,-4.3995,-4.3753,-4.3752,-4.3752,-4.3751,0,-4.3113,-4.3191,-4.3257,-4.3333,-4.3383,-4.347,-4.3489,-4.3539,-4.3536,-4.3555,-4.3662,-4.3707,-4.3782,-4.3814,-4.3811,-4.3942,-4.3922,-4.3893,-4.3832,-4.3949,-4.3997,-4.4017,-4.3759,-4.3758,-4.3756,-4.3755,0,0,-4.3281,-4.3361,-4.3385,-4.3419,-4.3484,-4.3544,-4.3632,-4.3706,-4.3748,-4.3804,-4.3876,-4.3982,-4.3954,-4.3997,-4.3999,-4.4059,-4.4178,-4.4022,-4.4023,-4.4047,-4.4324,-4.4343,-4.4366,-4.4166,-4.417,-4.4173,-4.4318,0,-4.342,-4.3571,-4.358,-4.3718,-4.379,-4.3772,-4.3848,-4.3896,-4.3918,-4.3982,-4.4006,-4.408,-4.404,-4.4065,-4.4124,-4.4151,-4.4233,-4.4141,-4.4232,-4.4235,-4.4214,-4.4391,-4.4412,-4.4546,-4.4337,-4.434,-4.4343,0,-4.3601,-4.3662,-4.3807,-4.3862,-4.3893,-4.3961,-4.403,-4.4093,-4.4148,-4.4159,-4.4208,-4.4202,-4.4292,-4.4232,-4.4355,-4.4293,-4.4332,-4.4351,-4.4356,-4.4362,-4.4293,-4.4398,-4.4589,-4.4608,-4.4373,-4.437,-4.4368,0,-4.3706,-4.3825,-4.3927,-4.3957,-4.4025,-4.4073,-4.4104,-4.4155,-4.42,-4.4262,-4.429,-4.4362,-4.4401,-4.4456,-4.4471,-4.4426,-4.4594,-4.4535,-4.4604,-4.4604,-4.4637,-4.4634,-4.4833,-4.4668,-4.4668,-4.4667,-4.4667,0,-4.3858,-4.3946,-4.3975,-4.4037,-4.4136,-4.4147,-4.4245,-4.4273,-4.4319,-4.4387,-4.4378,-4.4441,-4.4458,-4.4525,-4.4538,-4.4637,-4.4656,-4.4667,-4.4668,-4.4666,-4.4664,-4.4688,-4.4678,-4.4673,-4.4671,-4.467,-4.4669,0,-4.3989,-4.4012,-4.4122,-4.4178,-4.4195,-4.4265,-4.4313,-4.4373,-4.4395,-4.4481,-4.4502,-4.4535,-4.4614,-4.4636,-4.473,-4.4738,-4.4855,-4.485,-4.4836,-4.4834,-4.4902,-4.4894,-4.512,-4.515,-4.4969,-4.497,-4.4972,0,-4.4083,-4.415,-4.4215,-4.4259,-4.4292,-4.4364,-4.441,-4.4425,-4.4473,-4.4542,-4.4594,-4.4672,-4.4734,-4.4862,-4.4895,-4.4967,-4.4962,-4.5036,-4.4972,-4.4967,-4.4959,-4.4954,-4.496,-4.5047,-4.5049,-4.505,-4.5052,0,-4.4245,-4.4254,-4.432,-4.4391,-4.4447,-4.4503,-4.4558,-4.4595,-4.4618,-4.4673,-4.4753,-4.4802,-4.4899,-4.4976,-4.505,-4.5082,-4.5071,-4.5073,-4.5092,-4.5087,-4.5076,-4.508,-4.4865,-4.5066,-4.5064,-4.5063,-4.5063,-4.5062,-4.4359,-4.4418,-4.4472,-4.4547,-4.459,-4.4642,-4.4701,-4.4731,-4.4798,-4.4878,-4.4883,-4.4971,-4.5026,-4.5124,-4.5161,-4.5229,-4.5207,-4.5236,-4.5242,-4.5248,-4.5253,-4.5068,-4.5244,-4.5243,-4.5243,-4.5242,-4.5242,0,-4.4518,-4.4553,-4.4622,-4.4699,-4.4758,-4.4744,-4.4804,-4.4854,-4.4931,-4.4984,-4.5046,-4.5139,-4.5215,-4.5256,-4.5331,-4.5378,-4.5375,-4.5397,-4.5392,-4.5399,-4.527,-4.5244,-4.5399,-4.5399,-4.5399,-4.5399,-4.5399,-4.5399,-4.4608,-4.4707,-4.4723,-4.4844,-4.4879,-4.4964,-4.4999,-4.5047,-4.5089,-4.5193,-4.5256,-4.5283,-4.5331,-4.541,-4.5479,-4.5489,-4.5516,-4.5541,-4.5548,-4.5425,-4.5409,-4.5393,-4.5369,-4.5547,-4.5548,-4.5672,-4.5673,-4.5674]},{"header":{"parameterUnit":"m.s-1","parameterCategory":1,"la1":30.2991,"la2":30.254,"lo1":-89.0895,"lo2":-89.0444,"dy":0.0017,"dx":0.0017,"nx":28,"ny":28,"refTime":"2023-09-26T09:00:00:Z","depth":0,"parameterNumber":3,"parameterNumberName":"V-component_of_WINDS"},"data":[0,0,0,0,0,0,0,0,0,0,0,0,0,0,0,0,0,0,0,0,0,0,0,0,0,0,0,0,0,0,0,0,0,0,0,0,0,0,0,0,0,0,0,0,0,0,0,0,0,0,0,0,0,0,0,0,0,0,1.024,1.0241,0,1.0292,1.0293,1.0293,1.0328,1.0329,1.0329,1.0329,1.038,1.0381,1.0382,0,0,0,0,0,0,0,0,0,0,0,0,0,1.0172,1.0173,1.024,1.0241,1.0241,1.0292,1.0293,1.0293,1.0328,1.0329,1.0329,1.0329,1.0379,1.0381,1.0382,0,0,0,0,0,0,0,0,0,0,0,0,0,1.021,1.0173,1.024,1.0265,1.0268,1.0292,1.0293,1.0293,1.0328,1.0329,1.0329,1.0329,1.0379,1.038,1.0382,1.0384,0,0,1.0387,1.0388,0,0,0,0,0,0,0,0,1.0208,1.0213,1.0261,1.0263,1.0267,1.0304,1.0287,1.0324,1.0328,1.0305,1.0329,1.0329,1.0354,1.0358,1.0366,1.0387,1.0389,1.0387,1.0388,1.0389,1.0389,0,0,0,0,0,0,0,1.0205,1.0211,1.0261,1.0261,1.0265,1.0274,1.028,1.0294,1.0327,1.0307,1.031,1.0316,1.0356,1.0365,1.0368,1.039,1.0387,1.0389,1.039,1.039,1.0418,1.0417,0,0,0,0,0,0,1.0199,1.0208,1.0259,1.0262,1.0238,1.0275,1.0281,1.0292,1.0327,1.0332,1.0315,1.0317,1.0362,1.0366,1.037,1.0377,1.0389,1.0391,1.0391,1.0418,1.0417,1.0417,0,0,0,0,0,0,1.0197,1.0203,1.0257,1.0236,1.0244,1.0275,1.0287,1.0292,1.0302,1.0333,1.0339,1.0319,1.0362,1.0368,1.0381,1.0379,1.0391,1.0393,1.0418,1.0418,1.0417,1.0389,0,0,0,0,0,0,1.0195,1.0202,1.0203,1.0236,1.0245,1.0267,1.0287,1.0293,1.0305,1.0308,1.0337,1.0343,1.0363,1.0379,1.0383,1.0381,1.0394,1.0418,1.0418,1.0417,1.039,1.0387,1.0385,0,0,0,0,0,1.0192,1.0192,1.0203,1.0209,1.0246,1.0267,1.0272,1.0296,1.0304,1.0306,1.0326,1.0342,1.0379,1.038,1.0385,1.0384,1.0419,1.0418,1.0418,1.0391,1.0388,1.0385,0,0,0,0,0,0,1.0156,1.0196,1.0209,1.0219,1.024,1.0273,1.0275,1.0291,1.0309,1.0311,1.0339,1.0346,1.0357,1.0372,1.0373,1.0389,1.0401,1.0401,1.0379,1.0376,1.0374,1.037,1.0395,0,0,0,0,0,1.015,1.0164,1.0198,1.0203,1.0213,1.0243,1.0252,1.0269,1.0291,1.03,1.0321,1.0342,1.0358,1.0368,1.0385,1.0393,1.0401,1.0395,1.0392,1.039,1.039,1.0397,1.0396,1.0415,1.0415,1.0415,0,0,1.0136,1.016,1.0166,1.0197,1.0215,1.0228,1.0249,1.0262,1.0273,1.0301,1.0316,1.0333,1.0358,1.037,1.0376,1.0382,1.0387,1.0389,1.0387,1.0388,1.0397,1.0395,1.0393,1.0415,1.0415,1.0415,0,0,1.0117,1.0136,1.0144,1.0162,1.019,1.021,1.0212,1.0244,1.0257,1.0272,1.0295,1.0308,1.0335,1.0353,1.0365,1.0357,1.0373,1.0362,1.0349,1.0356,1.0354,1.0353,1.0351,1.035,1.0362,1.0362,1.0362,0,1.0096,1.0118,1.0146,1.0159,1.0172,1.0201,1.0209,1.0225,1.0256,1.0265,1.0272,1.0309,1.0328,1.0345,1.0343,1.0352,1.0356,1.0358,1.0352,1.0351,1.0351,1.0349,1.0348,1.036,1.036,1.0361,1.0361,0,1.0091,1.0106,1.0109,1.0141,1.0155,1.0165,1.0195,1.0206,1.0223,1.0242,1.0259,1.0283,1.0306,1.0312,1.0327,1.0332,1.0335,1.0347,1.0359,1.0347,1.0346,1.0346,1.0358,1.0359,1.0359,1.036,0,0,1.0048,1.0098,1.0098,1.0114,1.0148,1.0161,1.0173,1.0197,1.0207,1.0228,1.024,1.0264,1.0276,1.029,1.0309,1.0315,1.0309,1.0327,1.0328,1.0323,1.0317,1.0308,1.0307,1.032,1.032,1.032,1.0316,0,1.0035,1.006,1.0087,1.0102,1.0118,1.0147,1.0158,1.0181,1.02,1.0216,1.0238,1.0255,1.0269,1.0278,1.0286,1.0308,1.0308,1.0309,1.0332,1.0332,1.0324,1.0306,1.0296,1.029,1.0315,1.0315,1.0315,0,1.0022,1.0045,1.0062,1.0098,1.0105,1.0114,1.014,1.0155,1.0182,1.0196,1.0214,1.0234,1.025,1.0261,1.0284,1.0284,1.0295,1.0308,1.0308,1.0311,1.0322,1.0308,1.0288,1.0287,1.0315,1.0315,1.0315,0,0.999,1.0024,1.004,1.0052,1.0094,1.01,1.0118,1.0146,1.0159,1.0182,1.0191,1.0215,1.0228,1.0246,1.0273,1.0278,1.0293,1.0306,1.0305,1.0305,1.0306,1.0305,1.0288,1.0314,1.0314,1.0314,1.0314,0,0.9972,0.9982,1.0026,1.0036,1.0048,1.008,1.0091,1.0111,1.0136,1.015,1.0177,1.019,1.0225,1.0242,1.0263,1.028,1.0285,1.0297,1.0302,1.0294,1.0293,1.0301,1.0302,1.0313,1.0313,1.0314,1.0314,0,0.9937,0.9968,0.9987,1.0026,1.0036,1.0044,1.0077,1.0088,1.0111,1.0128,1.0134,1.0169,1.0191,1.0221,1.0251,1.0265,1.0279,1.0288,1.027,1.0274,1.0271,1.0271,1.0258,1.0259,1.0284,1.0284,1.0283,0,0.9924,0.9932,0.9973,0.9986,1.0003,1.0022,1.0037,1.0069,1.0084,1.0117,1.0124,1.0149,1.017,1.0204,1.0232,1.0256,1.0266,1.026,1.0269,1.0262,1.0266,1.0265,1.0267,1.0257,1.0256,1.0256,1.0256,0,0.9896,0.9912,0.9932,0.996,0.9977,1.0,1.0023,1.0032,1.007,1.0085,1.0109,1.0125,1.0158,1.0183,1.0211,1.023,1.0249,1.0253,1.0254,1.0245,1.0235,1.0242,1.0264,1.0252,1.0253,1.0253,1.0253,1.0253,0.9871,0.9881,0.9913,0.9936,0.9958,0.998,0.9993,1.0019,1.0039,1.0069,1.0088,1.0111,1.0141,1.0182,1.02,1.0219,1.0226,1.0228,1.0228,1.0228,1.0226,1.0233,1.0224,1.0224,1.0224,1.0225,1.0225,0,0.9846,0.9868,0.989,0.9923,0.9942,0.9961,0.9989,1.0003,1.0024,1.0051,1.0072,1.0101,1.0126,1.0157,1.0184,1.0194,1.0203,1.02,1.0199,1.0203,1.0217,1.0214,1.0191,1.0191,1.0191,1.0191,1.0191,1.0191,0.9834,0.9853,0.9872,0.9903,0.9925,0.995,0.9964,0.9986,1.0007,1.0039,1.006,1.0081,1.011,1.014,1.0164,1.0173,1.0182,1.0176,1.0187,1.0199,1.0202,1.0205,1.0202,1.0177,1.0177,1.0172,1.0172,1.0171]}]]